Location: Umburanas
(4.5000°S, 37.9667°W)
Time: 10:54:15
(UTC+00:00)

ARIANE 5 R/B - Pass Details

Date: 19 November 2019
Orbit: 271 x 33163 km, 2.6° (Epoch: 10 December)

Event Time Altitude Azimuth Distance (km) Brightness Sun altitude
Rises 20:48:09 0° 276° (W) 1,867 6.4 -5.7°
Reaches altitude 10° 20:49:31 10° 282° (WNW) 1,130 5.0 -6.1°
Maximum altitude 20:51:28 57° 3° (N) 467 1.9 -6.5°
Drops below altitude 10° 20:56:09 10° 83° (E) 2,686 5.2 -7.6°
Enters shadow 20:57:04 - 84° (E) 3,156 5.5 -7.8°
